Renton, WA
on Monday, December 17, 2012

Monday
Previous Day Next Day
Daily Summary
 ActualAverage (KSEA)Record (KSEA)
Temperature
Mean Temperature °F 40°F  
Max Temperature 50°F 45°F 57°F (1994)
Min Temperature 39°F 35°F 11°F (1964)
Degree Days
Heating Degree Days 20 25  
Month to date heating degree days 410  
Since 1 July heating degree days 1593  
Cooling Degree Days 0 0  
Month to date cooling degree days 0  
Year to date cooling degree days 189  
Moisture
Dew Point 34°F   
Average Humidity 70    
Maximum Humidity 83    
Minimum Humidity 61    
Precipitation
Precipitation 0.08 in 0.16 in 1.61 in (1979)
Month to date precipitation 3.03  
Year to date precipitation 35.17  
Snow
Snow 0.00 in in 0.10 in (1992)
Month to date snowfall  
Since 1 July snowfall  
Snow Depth in   
Wind
Wind Speed 13 mph   
Max Wind Speed 22 mph   
Max Gust Speed 44 mph   
Visibility 10 miles   
Events Rain   

Key: T is trace of precipitation, MM is missing value
Source: NWS Daily Summary
Time(PST)TemperatureDew PointHumidity Pressure Visibility Wind DirectionWind SpeedGust SpeedPrecipitationEvents Conditions
12:53 AM 48.0°F - N/A% 28.98 in 10.0 miles ESE 9.2 mph - 0.02 in   Overcast
1:53 AM 50.0°F - N/A% 28.96 in 10.0 miles SSE 15.0 mph 23.0 mph 0.01 in   Overcast
2:23 AM 50.0°F - N/A% 28.96 in 10.0 miles SSE 16.1 mph 28.8 mph 0.00 in Rain Light Rain
2:53 AM 50.0°F - N/A% 29.02 in 10.0 miles South 17.3 mph 32.2 mph 0.00 in   Overcast
3:53 AM 48.0°F - N/A% 29.06 in 10.0 miles South 15.0 mph 28.8 mph 0.05 in Rain Light Rain
4:53 AM 48.0°F 43.0°F 83% 29.13 in 10.0 miles South 21.9 mph 43.7 mph 0.00 in   Overcast
5:14 AM 48.2°F 37.4°F 66% 29.14 in 10.0 miles South 17.3 mph 36.8 mph N/A   Scattered Clouds
5:53 AM 48.0°F 37.0°F 66% 29.23 in 10.0 miles South 18.4 mph 36.8 mph N/A   Partly Cloudy
6:53 AM 48.0°F 36.0°F 63% 29.31 in 10.0 miles South 19.6 mph 33.4 mph N/A   Clear
7:53 AM 46.9°F 36.0°F 66% 29.39 in 10.0 miles South 16.1 mph 31.1 mph N/A   Clear
8:53 AM 46.0°F 37.0°F 71% 29.46 in 10.0 miles South 16.1 mph 26.5 mph N/A   Scattered Clouds
9:53 AM 45.0°F 35.1°F 68% 29.53 in 10.0 miles South 15.0 mph 26.5 mph N/A   Overcast
10:53 AM 45.0°F 35.1°F 68% 29.58 in 10.0 miles South 13.8 mph 25.3 mph N/A   Mostly Cloudy
11:53 AM 46.0°F 33.1°F 61% 29.62 in 10.0 miles South 9.2 mph 25.3 mph N/A   Mostly Cloudy
12:53 PM 46.0°F 34.0°F 63% 29.66 in 10.0 miles South 17.3 mph 27.6 mph N/A   Partly Cloudy
1:53 PM 46.0°F 33.1°F 61% 29.68 in 10.0 miles South 15.0 mph 27.6 mph N/A   Clear
4:53 PM 42.1°F 30.9°F 65% 29.78 in 10.0 miles South 10.4 mph 20.7 mph N/A   Clear
5:53 PM 41.0°F 32.0°F 70% 29.82 in 10.0 miles SSE 9.2 mph - N/A   Mostly Cloudy
6:53 PM 39.9°F 30.9°F 70% 29.84 in 10.0 miles SSE 8.1 mph - N/A   Mostly Cloudy
7:53 PM 39.9°F 30.9°F 70% 29.87 in 10.0 miles SSE 5.8 mph - N/A   Overcast
8:53 PM 39.0°F 30.9°F 73% 29.88 in 10.0 miles SSE 9.2 mph - N/A   Overcast
9:53 PM 39.0°F 32.0°F 76% 29.91 in 10.0 miles SSE 8.1 mph - N/A   Overcast
10:05 PM 39.2°F 32.0°F 75% 29.89 in 10.0 miles SSE 8.1 mph - N/A   Overcast
10:36 PM 39.2°F 32.0°F 75% 29.89 in 10.0 miles SSE 8.1 mph - N/A   Overcast
10:53 PM 39.0°F 32.0°F 76% 29.91 in 10.0 miles South 12.7 mph 18.4 mph 0.00 in Rain Light Rain
11:11 PM 39.2°F 32.0°F 75% 29.89 in 10.0 miles SSE 9.2 mph 16.1 mph 0.00 in   Overcast
11:53 PM 39.0°F 32.0°F 76% 29.91 in 10.0 miles SSE 10.4 mph 18.4 mph 0.00 in   Overcast
Moon Phase
Dec. 17 Dec. 20 Dec. 28 Jan. 04 Jan. 11
Sunrise:07:51 AM (PST) Moon Rise:10:45 AM (PST)12/17
Sunset:04:18 PM (PST) Moon Set:10:06 PM (PST)12/17

Copyright © 2014 The Weather Underground, Inc.